Location: Eschertshofen
(49.3064°N, 11.5756°E)
Time: 12:27:23
(UTC+00:00)

IGS 5A - Pass Details

Date: 18 September 2020
Orbit: 583 x 588 km, 97.6° (Epoch: 09 October)

Event Time Altitude Azimuth Distance (km) Brightness Sun altitude
Exits shadow 19:37:08 37° 45° (NE) 929 4.3 -22.1°
Drops below altitude 10° 19:40:20 10° 0° (N) 1,919 6.5 -22.6°
Sets 19:42:36 0° 353° (N) 2,823 7.5 -22.9°
